W K Kellogg Airport Battle Creek US
ICAO: KBTL
IATA: BTL
Category: Medium
Scheduled Services: No

Elevation: 952 ft
TransAlt. 18000 ft.

Airport Communications:
KALAMAZOO APP/DEP:119.2
ATIS:128.325
CTAF:118.5
GND:121.7
ANG OPS:32.35
LANSING RDO:122.2
BATTLE CREEK TWR:126.825
UNICOM:122.95

KBTL Zoom In..

Runways:

(A) RW 05L length 10004 ft width 150 ft
---- / hdg 47

(B) RW 05R length 4100 ft width 75 ft
---- / hdg 47

(C) RW 13 length 4835 ft width 100 ft
---- / hdg 130

(D) RW 23L length 4100 ft width 75 ft
---- / hdg 227

(E) RW 23R length 10004 ft width 150 ft
ILS 110.50 / hdg 227

(F) RW 31 length 4835 ft width 100 ft
---- / hdg 310

Location; KBTL
Day. 20 / Time. 09.53 Zulu
* Altimeter: 30.44
* Temperature: -01° c. -30.2°f.
* Wind from: 000° Speed 00 kn.
Dewpoint: -08° c.
Visibility: 10 Statute Miles.
Clouds: Clear (automated report).

KBTL 200953Z AUTO 00000KT 10SM CLR M01/M08 A3044 RMK AO2 SLP314 T10111078


Wind - Calm.

  YouTube Music Video
 
jpsmedia.com for Web Design  worldairports.se 2018   terms of use